San Francisco, California
Traffic Map
Current Weather Conditions
San Francisco, California
Broken Clouds
Broken Clouds
16°
Feels Like: 16°
Wind Chill: 16° Ceiling: 20000
Heat Index: 16° Visibility: 10mi
Dew Point: 12° Wind: 16mph
Humidity: 80% Direction: 290° (WNW)
Pressure: 29.85in Gusts: 0mph
Raw Report DataKSFO 010456Z 29014KT 10SM FEW003 BKN200 16/12 A2985 RMK AO2 SLP108 T01560122
Traffic Incident Summary
Active as of:
Severity:
Category:
InformationThere was an issue retrieving the traffic information for this location. Please try a different location or try again shortly.
Advertisements
Track Severe Weather on mobile